GW7074 Weather Reports


time (UTC)temp
F
wind
direction
speed
knots
gust
knots
rain 1hr
in
rain 24hr
in
rain mn
in
humidity
%
barometer
mb
20260502170348 69 18 7.8 8.7 0.00 0.00 0.00 54 1020.4
20260502164335 70 27 3.5 6.1 0.00 0.00 0.00 58 1020.4
20260502163831 69 19 7.8 9.6 0.00 0.00 0.00 54 1020.5
20260502163328 68 21 3.5 5.2 0.00 0.00 0.00 59 1020.5
20260502162826 68 26 7.8 9.6 0.00 0.00 0.00 58 1020.5
20260502162322 68 64 3.5 5.2 0.00 0.00 0.00 60 1020.4
20260502161819 68 357 5.2 7.0 0.00 0.00 0.00 62 1020.3
20260502161315 69 329 5.2 7.0 0.00 0.00 0.00 64 1020.4
20260502160813 68 312 1.7 1.7 0.00 0.00 0.00 66 1020.4
20260502160312 67 332 7.0 8.7 0.00 0.00 0.00 64 1020.3
20260502152241 65 36 2.6 5.2 0.00 0.00 0.00 71 1020.5
20260502151738 64 48 5.2 7.0 0.00 0.00 0.00 72 1020.5
20260502151235 64 25 3.5 3.5 0.00 0.00 0.00 72 1020.3
20260502150733 64 3 2.6 5.2 0.00 0.00 0.00 74 1020.3
20260502150230 63 66 5.2 6.1 0.00 0.00 0.00 74 1020.4
20260502130618 57 343 3.5 5.2 0.00 0.00 0.00 90 1019.2
20260502130116 57 339 5.2 7.0 0.00 0.00 0.00 90 1019.1
20260502123601 55 22 2.6 3.5 0.00 0.00 0.00 92 1018.8
20260502123057 55 318 2.6 3.5 0.00 0.00 0.00 93 1018.7
20260502122554 55 19 3.5 5.2 0.00 0.00 0.00 93 1018.6
20260502122051 55 23 2.6 3.5 0.00 0.00 0.00 93 1018.4
20260502121549 55 250 1.7 1.7 0.00 0.00 0.00 93 1018.3
20260502121046 54 263 1.7 1.7 0.00 0.00 0.00 94 1018.2
20260502120542 54 243 0.0 0.9 0.00 0.00 0.00 94 1018.3
20260502115538 54 267 0.9 0.9 0.00 0.00 0.00 94 1018.2
20260502115033 54 241 0.0 0.9 0.00 0.00 0.00 94 1018.1
20260502114530 54 9 3.5 3.5 0.00 0.00 0.00 94 1018.1
20260502114027 54 359 1.7 3.5 0.00 0.00 0.00 94 1017.9
20260502113524 54 310 2.6 2.6 0.00 0.00 0.00 94 1017.9
20260502113023 54 254 1.7 1.7 0.00 0.00 0.00 93 1017.9
20260502112520 54 259 1.7 1.7 0.00 0.00 0.00 93 1018.0
20260502112017 54 332 1.7 2.6 0.00 0.00 0.00 93 1018.0
20260502111515 54 303 1.7 1.7 0.00 0.00 0.00 93 1017.9
20260502111012 54 246 0.9 0.9 0.00 0.00 0.00 93 1017.8
20260502110509 54 256 1.7 1.7 0.00 0.00 0.00 93 1017.8
20260502110007 54 261 1.7 1.7 0.00 0.00 0.00 92 1017.8
20260502105504 54 339 1.7 1.7 0.00 0.00 0.00 92 1017.6
20260502105002 54 243 0.0 0.0 0.00 0.00 0.00 92 1017.7
20260502104459 55 243 0.0 0.0 0.00 0.00 0.00 92 1017.6
20260502103956 55 264 1.7 2.6 0.00 0.00 0.00 92 1017.6
20260502103453 55 256 1.7 1.7 0.00 0.00 0.00 91 1017.5
20260502102950 55 270 0.9 0.9 0.00 0.00 0.00 91 1017.3
20260502102447 55 357 1.7 2.6 0.00 0.00 0.00 90 1017.2
20260502101944 55 299 3.5 5.2 0.00 0.00 0.00 89 1017.3
20260502101442 55 341 1.7 2.6 0.00 0.00 0.00 89 1017.4
20260502100940 55 296 2.6 3.5 0.00 0.00 0.00 89 1017.1
20260502100439 55 291 1.7 1.7 0.00 0.00 0.00 89 1017.0
20260502091414 56 62 3.5 6.1 0.00 0.00 0.00 89 1016.1
20260502090910 57 239 1.7 2.6 0.00 0.00 0.00 89 1015.9
20260502090408 56 111 1.7 2.6 0.00 0.00 0.00 89 1015.9
20260502071303 56 1 1.7 2.6 0.00 0.00 0.00 93 1015.7
20260502070801 57 330 4.3 6.1 0.00 0.00 0.00 93 1015.9
20260502070258 57 26 3.5 3.5 0.00 0.00 0.00 93 1015.9
20260502065756 57 15 5.2 6.1 0.00 0.00 0.00 93 1015.8
20260502065254 57 22 3.5 3.5 0.00 0.00 0.00 93 1015.7
20260502064752 57 8 3.5 5.2 0.00 0.00 0.00 93 1015.9
20260502064249 57 356 2.6 3.5 0.00 0.00 0.00 93 1015.8
20260502063747 57 27 4.3 6.1 0.00 0.00 0.00 94 1015.8
20260502063245 57 10 3.5 5.2 0.00 0.00 0.00 94 1015.7
20260502062741 57 24 4.3 7.0 0.00 0.00 0.00 94 1015.7
20260502062239 57 358 3.5 3.5 0.00 0.00 0.00 94 1015.9
20260502061737 57 343 6.1 7.8 0.00 0.00 0.00 94 1015.5
20260502061235 57 31 5.2 6.1 0.00 0.00 0.00 94 1015.6
20260502060730 57 6 4.3 7.0 0.00 0.00 0.00 94 1015.5
20260502060226 57 359 5.2 6.1 0.00 0.00 0.00 94 1015.4
20260502055724 57 25 1.7 2.6 0.00 0.00 0.00 94 1015.6
20260502055222 57 64 7.0 11.3 0.00 0.00 0.00 94 1015.7
20260502054721 57 349 4.3 5.2 0.00 0.00 0.00 95 1015.3
20260502054218 57 351 5.2 6.1 0.00 0.00 0.00 95 1015.4
20260502053715 57 358 5.2 6.1 0.00 0.00 0.00 95 1015.2
20260502053212 57 156 2.6 3.5 0.00 0.00 0.00 95 1015.2
20260502052710 57 16 2.6 2.6 0.00 0.00 0.00 95 1015.4
20260502052208 57 28 6.1 7.0 0.00 0.00 0.00 95 1015.2
20260502051706 57 29 4.3 5.2 0.00 0.00 0.00 95 1015.1
20260502051204 57 19 5.2 7.0 0.00 0.00 0.00 95 1015.2
20260502050700 57 25 4.3 6.1 0.00 0.00 0.00 95 1015.3
20260502050156 57 345 1.7 1.7 0.00 0.00 0.00 95 1015.3
20260502045653 57 7 3.5 3.5 0.00 3.39 3.39 95 1015.2
20260502045151 57 12 2.6 3.5 0.00 3.39 3.39 95 1015.1
20260502044647 57 356 1.7 5.2 0.00 3.39 3.39 95 1015.2
20260502044143 57 21 2.6 3.5 0.00 3.39 3.39 95 1015.1
20260502043641 57 19 5.2 8.7 0.00 3.39 3.39 95 1015.0
20260502043138 57 18 4.3 6.1 0.00 3.39 3.39 95 1015.2
20260502042638 57 41 4.3 7.8 0.00 3.39 3.39 95 1015.4
20260502042135 57 27 5.2 6.1 0.00 3.39 3.39 95 1015.4
20260502041633 57 41 5.2 7.0 0.00 3.39 3.39 95 1015.6
20260502041129 57 28 6.1 7.8 0.00 3.39 3.39 95 1015.4
20260502040626 57 19 6.1 7.8 0.00 3.39 3.39 95 1015.2
20260502040124 57 4 6.1 7.8 0.00 3.39 3.39 95 1015.2
20260502035620 57 65 7.0 7.8 0.00 3.39 3.39 95 1015.2
20260502035117 57 14 9.6 11.3 0.00 3.39 3.39 96 1015.1
20260502034615 57 359 4.3 7.0 0.00 3.39 3.39 97 1015.1
20260502034113 57 299 3.5 5.2 0.00 3.39 3.39 97 1015.1
20260502033611 58 313 1.7 2.6 0.00 3.39 3.39 97 1015.0
20260502033108 57 348 3.5 3.5 0.00 3.39 3.39 97 1014.8
20260502032603 57 276 4.3 5.2 0.00 3.39 3.39 98 1015.0
20260502032100 57 359 2.6 3.5 0.00 3.39 3.39 98 1014.7
20260502031558 57 16 7.0 9.6 0.00 3.39 3.39 98 1014.7
20260502031056 57 3 7.0 11.3 0.00 3.39 3.39 99 1014.6
20260502030555 57 50 7.8 9.6 0.00 3.39 3.39 99 1014.6
20260502030052 57 356 6.1 7.0 0.00 3.39 3.39 99 1014.5
20260502025549 57 354 7.0 8.7 0.00 3.39 3.39 99 1013.9
20260502025047 57 262 4.3 5.2 0.00 3.39 3.39 99 1013.8
20260502024544 58 307 2.6 3.5 0.00 3.39 3.39 99 1013.5
20260502024043 58 19 4.3 7.0 0.00 3.39 3.39 99 1013.3
20260502023540 58 20 7.0 8.7 0.00 3.39 3.39 99 1013.4
20260502023037 58 39 5.2 6.1 0.00 3.39 3.39 99 1013.4
20260502022534 58 26 3.5 5.2 0.00 3.39 3.39 99 1013.6
20260502022031 58 349 4.3 6.1 0.00 3.39 3.39 99 1013.2
20260502021528 59 7 7.8 8.7 0.00 3.39 3.39 99 1013.0
20260502021025 59 177 3.5 3.5 0.00 3.39 3.39 99 1013.0
20260502020523 59 32 3.5 5.2 0.00 3.39 3.39 99 1013.0
20260502020020 59 40 3.5 6.1 0.12 3.39 3.39 99 1013.1
20260502015518 59 272 1.7 1.7 0.17 3.39 3.39 99 1013.1
20260502015014 59 21 4.3 6.1 0.19 3.38 3.38 99 1012.9
20260502014511 59 296 0.9 1.7 0.07 3.36 3.36 99 1013.0
20260502014008 59 311 3.5 5.2 0.00 3.35 3.35 99 1012.8
20260502013503 59 11 5.2 6.1 0.05 3.35 3.35 99 1012.9
20260502013000 59 18 3.5 6.1 0.05 3.35 3.35 99 1012.7
20260502012457 59 21 4.3 5.2 0.07 3.34 3.34 99 1012.8
20260502011955 59 358 3.5 5.2 0.07 3.34 3.34 99 1012.8
20260502011450 59 2 2.6 2.6 0.00 3.33 3.33 99 1012.6
20260502010948 59 324 3.5 5.2 0.00 3.33 3.33 99 1012.6
20260502010445 59 27 4.3 5.2 0.12 3.33 3.33 99 1012.2
20260502005940 59 31 6.1 8.7 0.19 3.33 3.33 99 1012.0
20260502005439 59 351 4.3 6.1 0.12 3.31 3.31 99 1011.9
20260502004937 59 1 3.5 5.2 0.12 3.30 3.30 99 1011.8
20260502004437 60 283 3.5 5.2 0.07 3.29 3.29 99 1012.2
20260502003935 60 262 0.9 1.7 0.00 3.28 3.28 99 1012.3
20260502003432 59 306 3.5 5.2 0.00 3.28 3.28 99 1011.8
20260502002928 59 8 4.3 5.2 0.00 3.28 3.28 99 1011.5
20260502002426 60 24 2.6 3.5 0.05 3.28 3.28 99 1011.4
20260502001923 60 38 4.3 5.2 0.05 3.28 3.28 99 1011.5
20260502001420 60 19 7.0 8.7 0.00 3.27 3.27 99 1011.4
20260502000918 60 325 3.5 5.2 0.12 3.27 3.27 99 1011.3
20260502000417 60 12 5.2 6.1 0.24 3.27 3.27 99 1011.5
20260501235912 60 317 5.2 6.1 0.31 3.25 3.25 99 1011.2
20260501235408 60 37 5.2 7.0 0.50 3.23 3.23 99 1011.2
20260501234903 60 48 5.2 7.0 0.71 3.20 3.20 99 1011.1
20260501234400 60 262 3.5 5.2 0.78 3.16 3.16 99 1011.9
20260501233859 61 357 5.2 7.8 0.50 3.10 3.10 99 1011.9
20260501233355 61 10 5.2 6.1 0.12 3.03 3.03 99 1011.2
20260501232851 60 22 6.1 7.8 0.05 3.02 3.02 99 1011.1
20260501232349 60 228 4.3 6.1 0.12 3.01 3.01 99 1009.6
20260501231846 60 25 3.5 6.1 0.19 3.01 3.01 99 1009.5
20260501231344 61 66 0.9 1.7 0.17 3.00 3.00 99 1009.4
20260501230842 61 56 4.3 5.2 0.12 2.98 2.98 99 1009.8
20260501230341 61 92 4.3 7.8 0.19 2.97 2.97 99 1010.7
20260501225837 61 350 6.1 8.7 0.19 2.96 2.96 99 1010.8
20260501225336 61 20 3.5 5.2 0.19 2.94 2.94 99 1010.3
20260501224831 61 40 0.9 2.6 0.24 2.93 2.93 99 1009.9
20260501224329 61 17 6.1 7.8 0.12 2.91 2.91 99 1010.2
20260501223825 61 4 3.5 3.5 0.00 2.89 2.89 99 1009.9
20260501223321 61 29 6.1 9.6 0.00 2.89 2.89 99 1009.8
20260501222817 62 7 3.5 5.2 0.00 2.89 2.89 99 1009.9
20260501222315 62 4 7.8 12.2 0.00 2.89 2.89 99 1009.3
20260501221811 62 4 6.1 7.8 0.00 2.89 2.89 99 1009.5
20260501221308 62 358 4.3 5.2 0.00 2.89 2.89 99 1009.1
20260501220807 62 33 7.8 11.3 0.00 2.89 2.89 99 1009.4
20260501220303 62 35 5.2 7.0 0.00 2.89 2.89 99 1009.9
20260501215800 62 58 6.1 7.8 0.00 2.89 2.89 99 1009.7
20260501215255 62 26 3.5 3.5 0.00 2.89 2.89 99 1009.9
20260501214751 62 304 2.6 3.5 0.05 2.89 2.89 99 1010.1
20260501214247 62 5 3.5 7.0 0.35 2.89 2.89 99 1010.1
20260501213743 62 72 3.5 3.5 0.78 2.88 2.88 99 1010.1
20260501213240 62 24 4.3 6.1 1.39 2.84 2.84 99 1009.9
20260501212736 62 16 2.6 5.2 1.44 2.78 2.78 99 1010.6
20260501212232 62 312 3.5 5.2 1.37 2.65 2.65 99 1010.4
20260501211730 62 69 3.5 6.1 1.09 2.53 2.53 99 1010.0
20260501211227 62 11 3.5 3.5 0.83 2.41 2.41 99 1010.4
20260501210724 62 8 3.5 5.2 0.61 2.34 2.34 99 1010.4
20260501210220 62 268 2.6 3.5 0.24 2.27 2.27 99 1010.1
20260501205717 62 8 2.6 3.5 0.17 2.24 2.24 99 1009.9
20260501205214 62 65 6.1 7.8 0.19 2.23 2.23 99 1009.4
20260501204711 62 345 3.5 5.2 0.14 2.21 2.21 99 1009.2
20260501204207 62 30 5.2 5.2 0.19 2.20 2.20 99 1008.6
20260501203703 63 23 3.5 6.1 0.24 2.19 2.19 99 1008.4
20260501203201 63 16 4.3 6.1 0.31 2.18 2.18 99 1009.0
20260501202658 62 304 1.7 2.6 0.28 2.15 2.15 99 1008.7
20260501202155 62 7 7.8 9.6 0.35 2.13 2.13 99 1008.6
20260501201652 63 92 6.1 7.0 0.54 2.10 2.10 99 1008.8
20260501201148 63 44 2.6 2.6 0.59 2.07 2.07 99 1009.3
20260501200645 63 20 4.3 6.1 0.31 2.01 2.01 99 1009.1
20260501200143 63 344 1.7 1.7 0.07 1.97 1.97 99 1009.3
20260501195640 63 24 0.9 2.6 0.07 1.96 1.96 99 1008.8
20260501195135 63 310 1.7 1.7 0.07 1.96 1.96 99 1008.6
20260501194631 63 36 5.2 7.0 0.00 1.95 1.95 99 1008.6
20260501194127 63 77 1.7 3.5 0.00 1.95 1.95 99 1008.4
20260501193624 63 27 4.3 7.0 0.00 1.95 1.95 99 1008.3
20260501193123 63 75 5.2 7.0 0.00 1.95 1.95 99 1008.4
20260501192619 63 323 1.7 1.7 0.12 1.95 1.95 99 1008.6
20260501192117 63 43 4.3 6.1 0.12 1.95 1.95 99 1008.6
20260501191614 63 358 3.5 5.2 0.17 1.93 1.93 99 1009.0
20260501191111 63 3 2.6 2.6 0.35 1.93 1.93 99 1008.8
20260501190607 63 21 7.8 8.7 0.28 1.91 1.91 99 1009.1
20260501185559 63 75 0.0 0.9 0.07 1.86 1.86 99 1009.4
20260501185055 63 303 2.6 3.5 0.00 1.85 1.85 99 1009.2
20260501184551 63 337 4.3 6.1 0.00 1.85 1.85 99 1008.4
20260501184046 63 139 6.1 9.6 0.05 1.85 1.85 99 1007.8
20260501183543 63 67 2.6 3.5 0.19 1.85 1.85 99 1008.3
20260501183039 63 90 0.9 1.7 1.44 1.84 1.84 99 1007.7
20260501182536 63 64 3.5 5.2 2.46 1.83 1.83 99 1009.0
20260501182033 63 339 4.3 7.0 2.22 1.70 1.70 99 1008.7
20260501181530 63 152 9.6 13.0 0.78 1.43 1.43 99 1009.8
20260501181027 63 249 1.7 2.6 0.17 1.32 1.32 99 1010.8
20260501180525 63 245 0.9 1.7 0.12 1.30 1.30 99 1009.0
20260501180021 63 123 0.9 5.2 0.24 1.29 1.29 99 1008.2
20260501175518 63 82 4.3 8.7 0.59 1.28 1.28 99 1008.2
20260501175014 63 78 0.0 0.9 1.02 1.26 1.26 99 1008.6
20260501174512 63 63 5.2 8.7 0.78 1.19 1.19 99 1009.2
20260501174009 63 344 3.5 3.5 0.24 1.09 1.09 99 1010.4
20260501173506 63 258 3.5 5.2 0.12 1.06 1.06 99 1010.0
20260501173003 63 309 2.6 3.5 0.31 1.05 1.05 99 1009.7